Location: Coupvray
(48.8929°N, 2.7967°E)
Time: 07:23:22
(UTC+00:00)

AQUA - Pass Details

Date: 14 July 2020
Orbit: 701 x 704 km, 98.2° (Epoch: 14 August)

Event Time Altitude Azimuth Distance (km) Brightness Sun altitude
Rises 01:26:11 0° 18° (NNE) 3,106 9.0 -16.6°
Reaches altitude 10° 01:28:32 10° 24° (NNE) 2,182 7.7 -16.4°
Maximum altitude 01:33:10 49° 100° (E) 902 4.4 -16.1°
Enters shadow 01:36:15 20° 168° (SSE) 1,595 5.2 -15.9°
